Weather History for International Falls, MN

Change the Weather History Date:

Tuesday, February 25, 2014

  Actual Average Record
Temperature  
Mean Temperature -8 °F 14 °F  
Max Temperature 1 °F 26 °F 52 °F (1958)
Min Temperature -18 °F 3 °F -38 °F (1909)
Degree Days  
Heating Degree Days 73 51  
Month to date heating degree days 1591 1381  
Since 1 July heating degree days 8206 7434  
Cooling Degree Days 0 0  
Month to date cooling degree days 0 0  
Year to date cooling degree days 0 0  
Moisture  
Dew Point -17 °F    
Average Humidity 63    
Maximum Humidity 81    
Minimum Humidity 45    
Precipitation  
Precipitation T in 0.02 in 0.62 in (1918)
Month to date precipitation 0.88 0.49  
Year to date precipitation 1.70 1.11  
Snow  
Snow 0.10 in 0.40 in 2.70 in (1985)
Month to date snowfall 20.6 9.6  
Since 1 July snowfall 74.8 55.6  
Snow Depth 32.00 in    
Sea Level Pressure  
Sea Level Pressure 30.26 in    
Wind  
Wind Speed 12 mph (West)    
Max Wind Speed 22 mph    
Max Gust Speed 27 mph    
Visibility 9 miles    
Events      
T = Trace of Precipitation, MM = Missing Value Source: NWS Daily Summary

Daily Weather History Graph

Daily Weather History Graph

Search for Another Location

Airport:

Trip Planner

Search our weather history database for the weather conditions in past years. The results will help you decide how hot, cold, wet, or windy it might be!

Date:

Astronomy

Feb. 25, 2014 Rise Set
Actual Time 7:02 AM CST 5:51 PM CST
Civil Twilight 6:31 AM CST 6:22 PM CST
Nautical Twilight 5:54 AM CST 6:59 PM CST
Astronomical Twilight 5:18 AM CST 7:35 PM CST
Moon 4:12 AM CST (2/25) 1:44 PM CST (2/25)
Length of Visible Light 11h 51m
Length of Day
10h 48m
Waning Crescent, 18% of the Moon is Illuminated
Feb 25
Waning Crescent
Mar 1
New
Mar 8
First Quarter
Mar 16
Full
Mar 23
Last Quarter

Hourly Weather History & Observations

Time (CST) Temp. Windchill Dew Point Humidity Pressure Visibility Wind Dir Wind Speed Gust Speed Precip Events Conditions
12:55 AM -11.0 °F -26.2 °F -16.1 °F 78% 30.28 in 10.0 mi West 6.9 mph - N/A   Mostly Cloudy
1:55 AM -11.9 °F -25.7 °F -17.0 °F 78% 30.27 in 10.0 mi West 5.8 mph - N/A   Clear
2:55 AM -13.0 °F -30.0 °F -18.9 °F 75% 30.27 in 10.0 mi West 8.1 mph - N/A   Scattered Clouds
3:55 AM -14.1 °F -31.3 °F -18.9 °F 79% 30.25 in 10.0 mi West 8.1 mph - N/A   Scattered Clouds
4:55 AM -15.0 °F -31.0 °F -20.0 °F 78% 30.25 in 10.0 mi West 6.9 mph - N/A   Mostly Cloudy
5:55 AM -16.1 °F -32.3 °F -20.9 °F 79% 30.25 in 10.0 mi West 6.9 mph - N/A   Overcast
6:55 AM -18.0 °F -33.0 °F -23.1 °F 78% 30.25 in 10.0 mi West 5.8 mph - N/A   Partly Cloudy
7:55 AM -17.0 °F -37.3 °F -22.0 °F 78% 30.26 in 8.0 mi West 10.4 mph - N/A   Scattered Clouds
8:55 AM -13.0 °F -33.4 °F -20.0 °F 71% 30.27 in 5.0 mi WNW 11.5 mph - 0.00 in   Haze
9:07 AM -11.9 °F -31.0 °F -18.9 °F 71% 30.14 in 10.0 mi WNW 10.4 mph - N/A   Mostly Cloudy
9:55 AM -9.0 °F -28.4 °F -17.0 °F 68% 30.27 in 10.0 mi WNW 11.5 mph - N/A   Clear
10:55 AM -4.0 °F -25.2 °F -14.1 °F 62% 30.27 in 10.0 mi WNW 16.1 mph - N/A   Clear
11:28 AM -2.0 °F -19.6 °F -11.9 °F 63% 30.16 in 4.0 mi NW 11.5 mph - N/A   Haze
11:55 AM -0.9 °F -21.2 °F -9.9 °F 66% 30.28 in 2.0 mi WNW 16.1 mph - N/A   Haze
12:20 PM -0.0 °F -18.0 °F -9.0 °F 66% 30.16 in 3.0 mi West 12.7 mph - N/A   Haze
12:55 PM 1.0 °F -16.6 °F -11.0 °F 57% 30.27 in 6.0 mi WNW 12.7 mph - N/A   Haze
1:44 PM -0.0 °F -20.7 °F -11.9 °F 57% 30.15 in 10.0 mi WNW 17.3 mph - N/A   Overcast
1:55 PM -0.0 °F -18.0 °F -11.9 °F 57% 30.28 in 10.0 mi NW 12.7 mph 21.9 mph N/A   Overcast
2:55 PM -0.0 °F -19.4 °F -15.0 °F 49% 30.28 in 10.0 mi WNW 15.0 mph 27.6 mph N/A   Clear
3:55 PM -0.9 °F -23.0 °F -16.1 °F 49% 30.30 in 10.0 mi WNW 19.6 mph 24.2 mph N/A   Scattered Clouds
4:55 PM -2.0 °F -23.3 °F -18.0 °F 47% 30.30 in 10.0 mi WNW 17.3 mph 25.3 mph N/A   Clear
5:55 PM -4.0 °F -23.0 °F -18.0 °F 51% 30.31 in 10.0 mi WNW 12.7 mph - N/A   Clear
6:55 PM -6.0 °F -23.6 °F -18.9 °F 54% 30.31 in 10.0 mi West 10.4 mph - N/A   Clear
7:55 PM -8.0 °F -28.8 °F -20.0 °F 56% 30.31 in 10.0 mi West 13.8 mph - N/A   Clear
8:55 PM -9.0 °F -28.4 °F -20.0 °F 59% 30.30 in 10.0 mi West 11.5 mph - N/A   Clear
9:55 PM -11.0 °F -29.9 °F -20.0 °F 64% 30.28 in 10.0 mi West 10.4 mph 19.6 mph N/A   Clear
10:55 PM -13.0 °F -32.4 °F -20.9 °F 68% 30.25 in 10.0 mi West 10.4 mph - N/A   Partly Cloudy
11:55 PM -13.0 °F -32.4 °F -20.9 °F 68% 30.21 in 10.0 mi West 10.4 mph - N/A   Scattered Clouds